Time,TemperatureF,DewpointF,PressureIn,WindDirection,WindDirectionDegrees,WindSpeedMPH,WindSpeedGustMPH,Humidity,HourlyPrecipIn,Conditions,Clouds,dailyrainin,SoftwareType,DateUTC
2013-05-10 00:02:00,60.5,58.1,29.89,SE,146,0.0,0.0,92,0.02,,,0.00,WUHU216DAVISVP2,2013-05-10 04:02:00,
2013-05-10 00:07:00,60.3,57.9,29.88,SE,146,0.0,0.0,92,0.02,,,0.00,WUHU216DAVISVP2,2013-05-10 04:07:00,
2013-05-10 00:12:00,60.1,57.7,29.88,SE,146,0.0,1.0,92,0.02,,,0.00,WUHU216DAVISVP2,2013-05-10 04:12:00,
2013-05-10 00:17:00,60.0,57.6,29.87,SE,146,0.0,1.0,92,0.01,,,0.00,WUHU216DAVISVP2,2013-05-10 04:17:00,
2013-05-10 00:22:00,60.0,57.6,29.87,SE,146,0.0,1.0,92,0.01,,,0.00,WUHU216DAVISVP2,2013-05-10 04:22:00,
2013-05-10 00:27:00,59.8,57.4,29.87,SE,146,0.0,1.0,92,0.01,,,0.00,WUHU216DAVISVP2,2013-05-10 04:27:00,
2013-05-10 00:32:00,59.7,57.6,29.87,SE,146,0.0,1.0,93,0.01,,,0.00,WUHU216DAVISVP2,2013-05-10 04:32:00,
2013-05-10 00:37:00,59.8,57.8,29.88,SE,146,0.0,2.0,93,0.01,,,0.00,WUHU216DAVISVP2,2013-05-10 04:37:00,
2013-05-10 00:42:00,59.8,58.1,29.88,SE,146,0.0,2.0,94,0.01,,,0.00,WUHU216DAVISVP2,2013-05-10 04:42:00,
2013-05-10 00:48:00,59.7,58.0,29.88,SE,146,0.0,2.0,94,0.01,,,0.00,WUHU216DAVISVP2,2013-05-10 04:48:00,
2013-05-10 00:53:00,59.8,58.0,29.88,SE,146,0.0,2.0,94,0.00,,,0.00,WUHU216DAVISVP2,2013-05-10 04:53:00,
2013-05-10 00:58:00,59.7,57.9,29.88,SE,133,0.0,4.0,94,0.00,,,0.00,WUHU216DAVISVP2,2013-05-10 04:58:00,
2013-05-10 01:03:00,59.7,57.9,29.88,SE,129,0.0,4.0,94,0.00,,,0.00,WUHU216DAVISVP2,2013-05-10 05:03:00,
2013-05-10 01:08:00,59.8,58.0,29.87,East,98,0.0,5.0,94,0.00,,,0.00,WUHU216DAVISVP2,2013-05-10 05:08:00,
2013-05-10 01:13:00,59.9,58.1,29.87,East,98,0.0,5.0,94,0.00,,,0.00,WUHU216DAVISVP2,2013-05-10 05:13:00,
2013-05-10 01:18:00,59.9,58.1,29.87,SE,126,0.0,5.0,94,0.00,,,0.00,WUHU216DAVISVP2,2013-05-10 05:18:00,
2013-05-10 01:23:00,60.0,58.0,29.87,SE,126,0.0,5.0,93,0.00,,,0.00,WUHU216DAVISVP2,2013-05-10 05:23:00,
2013-05-10 01:28:00,60.0,58.0,29.87,SE,126,0.0,2.0,93,0.00,,,0.00,WUHU216DAVISVP2,2013-05-10 05:28:00,
2013-05-10 01:33:00,60.0,57.9,29.86,SE,126,0.0,2.0,93,0.00,,,0.00,WUHU216DAVISVP2,2013-05-10 05:33:00,
2013-05-10 01:38:00,59.9,57.8,29.86,SE,126,0.0,1.0,93,0.00,,,0.00,WUHU216DAVISVP2,2013-05-10 05:38:00,
2013-05-10 01:43:00,59.9,57.8,29.86,ESE,111,1.0,2.0,93,0.00,,,0.00,WUHU216DAVISVP2,2013-05-10 05:43:00,
2013-05-10 01:48:00,59.9,57.8,29.86,ESE,109,0.0,5.0,93,0.00,,,0.00,WUHU216DAVISVP2,2013-05-10 05:48:00,
2013-05-10 01:53:00,59.9,57.8,29.85,ESE,108,1.0,5.0,93,0.00,,,0.00,WUHU216DAVISVP2,2013-05-10 05:53:00,
2013-05-10 01:58:00,59.9,58.1,29.85,East,98,1.0,6.0,94,0.00,,,0.00,WUHU216DAVISVP2,2013-05-10 05:58:00,
2013-05-10 02:03:00,59.9,57.9,29.84,East,82,4.0,6.0,93,0.01,,,0.01,WUHU216DAVISVP2,2013-05-10 06:03:00,
2013-05-10 02:08:00,60.0,58.0,29.84,East,100,6.0,10.0,93,0.02,,,0.02,WUHU216DAVISVP2,2013-05-10 06:08:00,
2013-05-10 02:14:00,60.0,58.0,29.83,East,88,8.0,15.0,93,0.02,,,0.02,WUHU216DAVISVP2,2013-05-10 06:14:00,
2013-05-10 02:19:00,60.0,57.9,29.83,East,92,4.0,15.0,93,0.02,,,0.02,WUHU216DAVISVP2,2013-05-10 06:19:00,
2013-05-10 02:24:00,59.9,58.1,29.83,ENE,76,7.0,15.0,94,0.02,,,0.02,WUHU216DAVISVP2,2013-05-10 06:24:00,
2013-05-10 02:29:00,59.8,58.0,29.82,ENE,68,2.0,15.0,94,0.02,,,0.02,WUHU216DAVISVP2,2013-05-10 06:29:00,
2013-05-10 02:34:00,59.7,57.9,29.82,East,90,5.0,8.0,94,0.02,,,0.02,WUHU216DAVISVP2,2013-05-10 06:34:00,
2013-05-10 02:39:00,59.6,57.8,29.82,East,88,5.0,8.0,94,0.02,,,0.02,WUHU216DAVISVP2,2013-05-10 06:39:00,
2013-05-10 02:44:00,59.6,57.8,29.82,East,94,4.0,7.0,94,0.03,,,0.03,WUHU216DAVISVP2,2013-05-10 06:44:00,
2013-05-10 02:49:00,59.5,58.0,29.81,ENE,72,2.0,8.0,95,0.04,,,0.04,WUHU216DAVISVP2,2013-05-10 06:49:00,
2013-05-10 02:54:00,59.4,57.9,29.80,East,81,2.0,8.0,95,0.04,,,0.04,WUHU216DAVISVP2,2013-05-10 06:54:00,
2013-05-10 02:59:00,59.3,57.8,29.80,ENE,78,1.0,8.0,95,0.05,,,0.05,WUHU216DAVISVP2,2013-05-10 06:59:00,
2013-05-10 03:05:00,59.3,58.1,29.80,ENE,57,5.0,9.0,96,0.04,,,0.05,WUHU216DAVISVP2,2013-05-10 07:05:00,
2013-05-10 03:10:00,59.3,58.1,29.80,East,92,4.0,9.0,96,0.04,,,0.06,WUHU216DAVISVP2,2013-05-10 07:10:00,
2013-05-10 03:15:00,59.3,58.1,29.79,East,87,6.0,11.0,96,0.05,,,0.07,WUHU216DAVISVP2,2013-05-10 07:15:00,
2013-05-10 03:20:00,59.3,58.1,29.79,SE,130,8.0,11.0,96,0.05,,,0.07,WUHU216DAVISVP2,2013-05-10 07:20:00,
2013-05-10 03:25:00,59.3,58.1,29.79,East,80,7.0,11.0,96,0.06,,,0.08,WUHU216DAVISVP2,2013-05-10 07:25:00,
2013-05-10 03:30:00,59.4,58.5,29.79,East,86,8.0,12.0,97,0.06,,,0.08,WUHU216DAVISVP2,2013-05-10 07:30:00,
2013-05-10 03:35:00,59.4,58.5,29.79,South,172,5.0,12.0,97,0.06,,,0.08,WUHU216DAVISVP2,2013-05-10 07:35:00,
2013-05-10 03:40:00,59.5,58.6,29.79,East,90,5.0,12.0,97,0.06,,,0.08,WUHU216DAVISVP2,2013-05-10 07:40:00,
2013-05-10 03:45:00,59.6,58.7,29.78,ENE,74,6.0,13.0,97,0.05,,,0.08,WUHU216DAVISVP2,2013-05-10 07:45:00,
2013-05-10 03:50:00,59.7,58.8,29.78,SE,130,12.0,13.0,97,0.04,,,0.08,WUHU216DAVISVP2,2013-05-10 07:50:00,
2013-05-10 03:55:00,59.8,58.6,29.78,ESE,107,5.0,13.0,96,0.03,,,0.08,WUHU216DAVISVP2,2013-05-10 07:55:00,
2013-05-10 04:00:00,59.9,58.7,29.78,SE,124,2.0,13.0,96,0.03,,,0.08,WUHU216DAVISVP2,2013-05-10 08:00:00,
2013-05-10 04:05:00,60.0,59.1,29.78,SE,136,8.0,13.0,97,0.03,,,0.08,WUHU216DAVISVP2,2013-05-10 08:05:00,
2013-05-10 04:10:00,60.1,58.9,29.78,SE,132,2.0,13.0,96,0.02,,,0.08,WUHU216DAVISVP2,2013-05-10 08:10:00,
2013-05-10 04:16:00,60.2,59.0,29.78,SSE,161,5.0,13.0,96,0.01,,,0.08,WUHU216DAVISVP2,2013-05-10 08:16:00,
2013-05-10 04:21:00,60.2,59.0,29.77,SE,146,12.0,13.0,96,0.01,,,0.08,WUHU216DAVISVP2,2013-05-10 08:21:00,
2013-05-10 04:26:00,60.2,59.0,29.78,SE,143,2.0,12.0,96,0.00,,,0.08,WUHU216DAVISVP2,2013-05-10 08:26:00,
2013-05-10 04:31:00,60.3,59.1,29.78,SSE,159,1.0,13.0,96,0.00,,,0.08,WUHU216DAVISVP2,2013-05-10 08:31:00,
2013-05-10 04:36:00,60.4,59.2,29.78,SE,126,4.0,13.0,96,0.00,,,0.08,WUHU216DAVISVP2,2013-05-10 08:36:00,
2013-05-10 04:41:00,60.5,59.3,29.78,South,184,5.0,13.0,96,0.00,,,0.08,WUHU216DAVISVP2,2013-05-10 08:41:00,
2013-05-10 04:46:00,60.6,59.4,29.78,SE,139,9.0,14.0,96,0.00,,,0.08,WUHU216DAVISVP2,2013-05-10 08:46:00,
2013-05-10 04:51:00,60.7,59.5,29.78,SE,139,9.0,14.0,96,0.00,,,0.08,WUHU216DAVISVP2,2013-05-10 08:51:00,
2013-05-10 04:56:00,60.8,59.3,29.78,ESE,119,7.0,14.0,95,0.00,,,0.08,WUHU216DAVISVP2,2013-05-10 08:56:00,
2013-05-10 05:01:00,60.9,59.4,29.78,SSE,148,2.0,14.0,95,0.00,,,0.08,WUHU216DAVISVP2,2013-05-10 09:01:00,
2013-05-10 05:06:00,61.0,59.5,29.77,SE,136,7.0,12.0,95,0.00,,,0.08,WUHU216DAVISVP2,2013-05-10 09:06:00,
2013-05-10 05:11:00,61.0,59.5,29.77,ESE,123,4.0,12.0,95,0.00,,,0.08,WUHU216DAVISVP2,2013-05-10 09:11:00,
2013-05-10 05:16:00,61.1,59.6,29.77,SE,145,4.0,12.0,95,0.00,,,0.08,WUHU216DAVISVP2,2013-05-10 09:16:00,
2013-05-10 05:21:00,61.0,59.5,29.77,SSE,157,2.0,11.0,95,0.00,,,0.08,WUHU216DAVISVP2,2013-05-10 09:21:00,
2013-05-10 05:27:00,61.1,59.6,29.77,SE,132,8.0,13.0,95,0.00,,,0.08,WUHU216DAVISVP2,2013-05-10 09:27:00,
2013-05-10 05:32:00,61.1,59.6,29.77,SSE,150,2.0,13.0,95,0.00,,,0.08,WUHU216DAVISVP2,2013-05-10 09:32:00,
2013-05-10 05:37:00,61.2,59.7,29.77,South,175,4.0,13.0,95,0.00,,,0.08,WUHU216DAVISVP2,2013-05-10 09:37:00,
2013-05-10 05:42:00,61.2,59.7,29.77,SE,138,5.0,13.0,95,0.00,,,0.08,WUHU216DAVISVP2,2013-05-10 09:42:00,
2013-05-10 05:47:00,61.3,59.8,29.77,SSE,149,8.0,13.0,95,0.00,,,0.08,WUHU216DAVISVP2,2013-05-10 09:47:00,
2013-05-10 05:52:00,61.3,59.5,29.77,South,178,7.0,13.0,94,0.00,,,0.08,WUHU216DAVISVP2,2013-05-10 09:52:00,
2013-05-10 05:57:00,61.3,59.5,29.77,South,191,4.0,13.0,94,0.00,,,0.08,WUHU216DAVISVP2,2013-05-10 09:57:00,
2013-05-10 06:02:00,61.2,59.4,29.76,SSE,165,2.0,10.0,94,0.00,,,0.08,WUHU216DAVISVP2,2013-05-10 10:02:00,
2013-05-10 06:07:00,61.1,59.3,29.76,SSE,153,2.0,9.0,94,0.00,,,0.08,WUHU216DAVISVP2,2013-05-10 10:07:00,
2013-05-10 06:12:00,61.0,59.2,29.76,SE,146,0.0,10.0,94,0.00,,,0.08,WUHU216DAVISVP2,2013-05-10 10:12:00,
2013-05-10 06:17:00,60.9,59.4,29.76,South,171,2.0,10.0,95,0.00,,,0.08,WUHU216DAVISVP2,2013-05-10 10:17:00,
2013-05-10 06:22:00,60.8,59.4,29.76,SSE,152,6.0,10.0,95,0.00,,,0.08,WUHU216DAVISVP2,2013-05-10 10:22:00,
2013-05-10 06:27:00,60.8,59.4,29.76,South,180,1.0,10.0,95,0.00,,,0.08,WUHU216DAVISVP2,2013-05-10 10:27:00,
2013-05-10 06:32:00,60.8,59.4,29.76,South,175,4.0,8.0,95,0.00,,,0.08,WUHU216DAVISVP2,2013-05-10 10:32:00,
2013-05-10 06:37:00,60.8,59.4,29.76,South,169,1.0,8.0,95,0.00,,,0.08,WUHU216DAVISVP2,2013-05-10 10:37:00,
2013-05-10 06:42:00,60.8,59.4,29.76,SE,137,0.0,8.0,95,0.00,,,0.08,WUHU216DAVISVP2,2013-05-10 10:42:00,
2013-05-10 06:48:00,60.8,59.4,29.76,SE,134,0.0,8.0,95,0.00,,,0.08,WUHU216DAVISVP2,2013-05-10 10:48:00,
2013-05-10 06:53:00,60.8,59.4,29.76,SSE,162,2.0,8.0,95,0.00,,,0.08,WUHU216DAVISVP2,2013-05-10 10:53:00,
2013-05-10 06:58:00,60.9,59.4,29.76,SSE,153,1.0,8.0,95,0.00,,,0.08,WUHU216DAVISVP2,2013-05-10 10:58:00,
2013-05-10 07:03:00,60.9,59.4,29.77,South,182,1.0,11.0,95,0.00,,,0.08,WUHU216DAVISVP2,2013-05-10 11:03:00,
2013-05-10 07:08:00,61.0,59.5,29.77,SSE,167,4.0,11.0,95,0.00,,,0.08,WUHU216DAVISVP2,2013-05-10 11:08:00,
2013-05-10 07:13:00,61.1,59.3,29.77,South,173,4.0,11.0,94,0.00,,,0.08,WUHU216DAVISVP2,2013-05-10 11:13:00,
2013-05-10 07:18:00,61.3,59.5,29.77,SSE,166,5.0,12.0,94,0.00,,,0.08,WUHU216DAVISVP2,2013-05-10 11:18:00,
2013-05-10 07:23:00,61.4,59.6,29.78,South,175,5.0,12.0,94,0.00,,,0.08,WUHU216DAVISVP2,2013-05-10 11:23:00,
2013-05-10 07:28:00,61.4,59.6,29.77,SE,142,4.0,12.0,94,0.00,,,0.08,WUHU216DAVISVP2,2013-05-10 11:28:00,
2013-05-10 07:33:00,61.5,59.7,29.77,SE,133,0.0,9.0,94,0.00,,,0.08,WUHU216DAVISVP2,2013-05-10 11:33:00,
2013-05-10 07:38:00,61.5,59.7,29.77,SE,132,7.0,10.0,94,0.00,,,0.08,WUHU216DAVISVP2,2013-05-10 11:38:00,
2013-05-10 07:43:00,61.5,59.7,29.77,SE,132,4.0,10.0,94,0.00,,,0.08,WUHU216DAVISVP2,2013-05-10 11:43:00,
2013-05-10 07:48:00,61.5,59.7,29.77,South,179,1.0,10.0,94,0.00,,,0.08,WUHU216DAVISVP2,2013-05-10 11:48:00,
2013-05-10 07:53:00,61.5,59.7,29.77,SSE,167,4.0,10.0,94,0.00,,,0.08,WUHU216DAVISVP2,2013-05-10 11:53:00,
2013-05-10 07:58:00,61.4,59.6,29.77,SSE,167,5.0,10.0,94,0.00,,,0.08,WUHU216DAVISVP2,2013-05-10 11:58:00,
2013-05-10 08:03:00,61.3,59.5,29.78,SSE,165,4.0,10.0,94,0.00,,,0.08,WUHU216DAVISVP2,2013-05-10 12:03:00,
2013-05-10 08:09:00,61.3,59.5,29.78,SE,134,3.0,10.0,94,0.00,,,0.08,WUHU216DAVISVP2,2013-05-10 12:09:00,
2013-05-10 08:14:00,61.2,59.7,29.78,South,175,7.0,10.0,95,0.00,,,0.08,WUHU216DAVISVP2,2013-05-10 12:14:00,
2013-05-10 08:19:00,61.2,59.7,29.78,SSE,156,2.0,10.0,95,0.00,,,0.08,WUHU216DAVISVP2,2013-05-10 12:19:00,
2013-05-10 08:24:00,61.2,59.7,29.78,SE,130,4.0,12.0,95,0.00,,,0.08,WUHU216DAVISVP2,2013-05-10 12:24:00,
2013-05-10 08:29:00,61.2,59.7,29.78,South,184,5.0,12.0,95,0.00,,,0.08,WUHU216DAVISVP2,2013-05-10 12:29:00,
2013-05-10 08:34:00,61.2,59.7,29.78,SSE,159,1.0,12.0,95,0.00,,,0.08,WUHU216DAVISVP2,2013-05-10 12:34:00,
2013-05-10 08:39:00,61.3,59.8,29.77,SSW,194,0.0,12.0,95,0.00,,,0.08,WUHU216DAVISVP2,2013-05-10 12:39:00,
2013-05-10 08:44:00,61.4,59.9,29.78,South,169,1.0,10.0,95,0.00,,,0.08,WUHU216DAVISVP2,2013-05-10 12:44:00,
2013-05-10 08:49:00,61.5,60.0,29.77,SSW,207,1.0,10.0,95,0.00,,,0.08,WUHU216DAVISVP2,2013-05-10 12:49:00,
2013-05-10 08:54:00,61.6,59.8,29.77,SE,127,5.0,9.0,94,0.00,,,0.08,WUHU216DAVISVP2,2013-05-10 12:54:00,
2013-05-10 08:59:00,61.8,60.0,29.77,SE,142,1.0,9.0,94,0.00,,,0.08,WUHU216DAVISVP2,2013-05-10 12:59:00,
2013-05-10 09:04:00,62.0,60.2,29.77,SSW,194,10.0,12.0,94,0.00,,,0.08,WUHU216DAVISVP2,2013-05-10 13:04:00,
2013-05-10 09:09:00,62.2,60.1,29.77,South,190,8.0,13.0,93,0.00,,,0.08,WUHU216DAVISVP2,2013-05-10 13:09:00,
2013-05-10 09:14:00,62.3,60.2,29.77,SSW,200,8.0,13.0,93,0.00,,,0.08,WUHU216DAVISVP2,2013-05-10 13:14:00,
2013-05-10 09:19:00,62.5,60.4,29.77,SSW,194,7.0,13.0,93,0.00,,,0.08,WUHU216DAVISVP2,2013-05-10 13:19:00,
2013-05-10 09:24:00,62.7,60.3,29.77,South,186,7.0,13.0,92,0.00,,,0.08,WUHU216DAVISVP2,2013-05-10 13:24:00,
2013-05-10 09:30:00,62.9,60.5,29.77,South,182,4.0,12.0,92,0.00,,,0.08,WUHU216DAVISVP2,2013-05-10 13:30:00,
2013-05-10 09:35:00,63.1,60.7,29.77,South,187,6.0,13.0,92,0.00,,,0.08,WUHU216DAVISVP2,2013-05-10 13:35:00,
2013-05-10 09:40:00,63.3,60.6,29.77,South,171,7.0,15.0,91,0.00,,,0.08,WUHU216DAVISVP2,2013-05-10 13:40:00,
2013-05-10 09:45:00,63.5,60.5,29.77,South,190,8.0,15.0,90,0.00,,,0.08,WUHU216DAVISVP2,2013-05-10 13:45:00,
2013-05-10 09:50:00,63.7,60.4,29.77,SW,214,11.0,16.0,89,0.00,,,0.08,WUHU216DAVISVP2,2013-05-10 13:50:00,
2013-05-10 09:55:00,63.9,60.3,29.77,SSW,200,9.0,21.0,88,0.00,,,0.08,WUHU216DAVISVP2,2013-05-10 13:55:00,
2013-05-10 10:00:00,64.2,60.2,29.77,SSW,208,11.0,21.0,87,0.00,,,0.08,WUHU216DAVISVP2,2013-05-10 14:00:00,
2013-05-10 10:05:00,64.6,60.3,29.77,SSW,201,8.0,21.0,86,0.00,,,0.08,WUHU216DAVISVP2,2013-05-10 14:05:00,
2013-05-10 10:10:00,65.0,60.4,29.77,SSW,198,5.0,21.0,85,0.00,,,0.08,WUHU216DAVISVP2,2013-05-10 14:10:00,
2013-05-10 10:15:00,65.1,60.5,29.77,SSW,196,10.0,20.0,85,0.00,,,0.08,WUHU216DAVISVP2,2013-05-10 14:15:00,
2013-05-10 10:20:00,65.0,60.1,29.77,SSW,207,5.0,25.0,84,0.00,,,0.08,WUHU216DAVISVP2,2013-05-10 14:20:00,
2013-05-10 10:25:00,64.8,59.9,29.77,SSW,206,16.0,25.0,84,0.00,,,0.08,WUHU216DAVISVP2,2013-05-10 14:25:00,
2013-05-10 10:30:00,65.1,60.2,29.77,SW,226,11.0,25.0,84,0.00,,,0.08,WUHU216DAVISVP2,2013-05-10 14:30:00,
2013-05-10 10:35:00,65.1,59.8,29.77,South,182,9.0,25.0,83,0.00,,,0.08,WUHU216DAVISVP2,2013-05-10 14:35:00,
2013-05-10 10:40:00,65.4,60.1,29.77,SSW,194,10.0,20.0,83,0.00,,,0.08,WUHU216DAVISVP2,2013-05-10 14:40:00,
2013-05-10 10:45:00,65.8,60.2,29.77,SSW,197,16.0,21.0,82,0.00,,,0.08,WUHU216DAVISVP2,2013-05-10 14:45:00,
2013-05-10 10:51:00,66.1,60.1,29.76,South,177,15.0,23.0,81,0.00,,,0.08,WUHU216DAVISVP2,2013-05-10 14:51:00,
2013-05-10 10:56:00,65.9,59.9,29.77,South,187,11.0,23.0,81,0.00,,,0.08,WUHU216DAVISVP2,2013-05-10 14:56:00,
2013-05-10 11:01:00,65.9,60.0,29.77,SSW,193,18.0,23.0,81,0.00,,,0.08,WUHU216DAVISVP2,2013-05-10 15:01:00,
2013-05-10 11:06:00,65.8,60.2,29.77,SSW,200,13.0,22.0,82,0.00,,,0.08,WUHU216DAVISVP2,2013-05-10 15:06:00,
2013-05-10 11:11:00,66.1,59.8,29.77,SSW,194,8.0,22.0,80,0.00,,,0.08,WUHU216DAVISVP2,2013-05-10 15:11:00,
2013-05-10 11:16:00,66.0,60.1,29.78,South,188,5.0,22.0,81,0.00,,,0.08,WUHU216DAVISVP2,2013-05-10 15:16:00,
2013-05-10 11:21:00,66.2,60.3,29.78,South,178,7.0,21.0,81,0.00,,,0.08,WUHU216DAVISVP2,2013-05-10 15:21:00,
2013-05-10 11:26:00,65.9,59.6,29.78,SSW,204,6.0,21.0,80,0.00,,,0.08,WUHU216DAVISVP2,2013-05-10 15:26:00,
2013-05-10 11:31:00,66.1,60.2,29.78,SSW,198,8.0,21.0,81,0.00,,,0.08,WUHU216DAVISVP2,2013-05-10 15:31:00,
2013-05-10 11:36:00,66.4,60.5,29.78,SSW,196,6.0,21.0,81,0.00,,,0.08,WUHU216DAVISVP2,2013-05-10 15:36:00,
2013-05-10 11:41:00,66.7,60.4,29.78,SW,218,11.0,18.0,80,0.00,,,0.08,WUHU216DAVISVP2,2013-05-10 15:41:00,
2013-05-10 11:46:00,67.2,60.2,29.78,SSW,208,19.0,19.0,78,0.00,,,0.08,WUHU216DAVISVP2,2013-05-10 15:46:00,
2013-05-10 11:51:00,67.2,60.2,29.78,SW,225,13.0,19.0,78,0.00,,,0.08,WUHU216DAVISVP2,2013-05-10 15:51:00,
2013-05-10 11:56:00,67.4,60.0,29.78,South,182,13.0,19.0,77,0.00,,,0.08,WUHU216DAVISVP2,2013-05-10 15:56:00,
2013-05-10 12:01:00,67.3,59.6,29.78,SSW,199,12.0,19.0,76,0.00,,,0.08,WUHU216DAVISVP2,2013-05-10 16:01:00,
2013-05-10 12:06:00,67.3,59.6,29.78,SW,217,14.0,23.0,76,0.00,,,0.08,WUHU216DAVISVP2,2013-05-10 16:06:00,
2013-05-10 12:11:00,67.2,59.5,29.78,SW,221,9.0,23.0,76,0.00,,,0.08,WUHU216DAVISVP2,2013-05-10 16:11:00,
2013-05-10 12:17:00,67.7,60.0,29.78,South,182,6.0,23.0,76,0.00,,,0.08,WUHU216DAVISVP2,2013-05-10 16:17:00,
2013-05-10 12:22:00,68.1,60.0,29.78,SSW,207,9.0,23.0,75,0.00,,,0.08,WUHU216DAVISVP2,2013-05-10 16:22:00,
2013-05-10 12:27:00,67.8,59.0,29.78,SSW,196,15.0,23.0,73,0.00,,,0.08,WUHU216DAVISVP2,2013-05-10 16:27:00,
2013-05-10 12:32:00,67.7,60.0,29.77,SSW,193,7.0,23.0,76,0.00,,,0.08,WUHU216DAVISVP2,2013-05-10 16:32:00,
2013-05-10 12:37:00,68.4,61.0,29.77,SW,215,8.0,23.0,77,0.00,,,0.08,WUHU216DAVISVP2,2013-05-10 16:37:00,
2013-05-10 12:42:00,68.9,59.7,29.77,South,182,13.0,24.0,72,0.00,,,0.08,WUHU216DAVISVP2,2013-05-10 16:42:00,
2013-05-10 12:47:00,68.4,59.2,29.77,SSW,201,12.0,24.0,72,0.00,,,0.08,WUHU216DAVISVP2,2013-05-10 16:47:00,
2013-05-10 12:52:00,68.2,58.2,29.77,SSW,209,21.0,25.0,70,0.00,,,0.08,WUHU216DAVISVP2,2013-05-10 16:52:00,
2013-05-10 12:57:00,68.3,59.5,29.77,South,184,6.0,25.0,73,0.00,,,0.08,WUHU216DAVISVP2,2013-05-10 16:57:00,
2013-05-10 13:02:00,68.6,59.7,29.77,SW,221,9.0,25.0,73,0.00,,,0.08,WUHU216DAVISVP2,2013-05-10 17:02:00,
2013-05-10 13:07:00,68.8,58.8,29.77,South,190,15.0,25.0,70,0.00,,,0.08,WUHU216DAVISVP2,2013-05-10 17:07:00,
2013-05-10 13:12:00,68.3,58.7,29.76,SSW,192,8.0,22.0,71,0.00,,,0.08,WUHU216DAVISVP2,2013-05-10 17:12:00,
2013-05-10 13:17:00,68.4,59.2,29.77,South,190,14.0,22.0,72,0.00,,,0.08,WUHU216DAVISVP2,2013-05-10 17:17:00,
2013-05-10 13:22:00,68.5,59.7,29.77,SSW,192,13.0,22.0,73,0.00,,,0.08,WUHU216DAVISVP2,2013-05-10 17:22:00,
2013-05-10 13:27:00,68.3,58.9,29.77,SSW,197,10.0,24.0,72,0.00,,,0.08,WUHU216DAVISVP2,2013-05-10 17:27:00,
2013-05-10 13:32:00,68.2,58.4,29.77,South,173,8.0,24.0,71,0.00,,,0.08,WUHU216DAVISVP2,2013-05-10 17:32:00,
2013-05-10 13:37:00,68.1,58.7,29.77,SSW,192,20.0,24.0,72,0.00,,,0.08,WUHU216DAVISVP2,2013-05-10 17:37:00,
2013-05-10 13:43:00,68.1,59.1,29.77,SSW,195,12.0,23.0,73,0.00,,,0.08,WUHU216DAVISVP2,2013-05-10 17:43:00,
2013-05-10 13:48:00,68.0,58.8,29.78,South,171,13.0,23.0,72,0.00,,,0.08,WUHU216DAVISVP2,2013-05-10 17:48:00,
2013-05-10 13:53:00,67.9,58.7,29.77,SSE,147,7.0,23.0,72,0.00,,,0.08,WUHU216DAVISVP2,2013-05-10 17:53:00,
2013-05-10 13:58:00,67.7,58.5,29.78,SSW,200,13.0,22.0,72,0.00,,,0.08,WUHU216DAVISVP2,2013-05-10 17:58:00,
2013-05-10 14:03:00,67.8,58.6,29.77,South,188,9.0,22.0,72,0.00,,,0.08,WUHU216DAVISVP2,2013-05-10 18:03:00,
2013-05-10 14:08:00,67.9,59.4,29.77,South,178,6.0,22.0,74,0.00,,,0.08,WUHU216DAVISVP2,2013-05-10 18:08:00,
2013-05-10 14:13:00,67.8,59.0,29.77,South,190,10.0,23.0,73,0.00,,,0.08,WUHU216DAVISVP2,2013-05-10 18:13:00,
2013-05-10 14:18:00,68.0,59.2,29.77,SSW,199,7.0,23.0,73,0.00,,,0.08,WUHU216DAVISVP2,2013-05-10 18:18:00,
2013-05-10 14:23:00,68.3,59.1,29.77,South,188,14.0,23.0,72,0.00,,,0.08,WUHU216DAVISVP2,2013-05-10 18:23:00,
2013-05-10 14:28:00,68.1,58.9,29.77,South,175,8.0,23.0,72,0.00,,,0.08,WUHU216DAVISVP2,2013-05-10 18:28:00,
2013-05-10 14:33:00,68.0,58.4,29.76,SSW,194,7.0,23.0,71,0.00,,,0.08,WUHU216DAVISVP2,2013-05-10 18:33:00,
2013-05-10 14:38:00,68.1,59.1,29.76,South,188,6.0,23.0,73,0.00,,,0.08,WUHU216DAVISVP2,2013-05-10 18:38:00,
2013-05-10 14:43:00,68.2,58.4,29.76,SSW,201,10.0,21.0,71,0.00,,,0.08,WUHU216DAVISVP2,2013-05-10 18:43:00,
2013-05-10 14:48:00,68.1,58.3,29.76,South,188,6.0,21.0,71,0.00,,,0.08,WUHU216DAVISVP2,2013-05-10 18:48:00,
2013-05-10 14:53:00,67.8,58.4,29.76,SSE,167,5.0,23.0,72,0.00,,,0.08,WUHU216DAVISVP2,2013-05-10 18:53:00,
2013-05-10 14:58:00,67.7,59.1,29.76,SSW,198,12.0,23.0,74,0.00,,,0.08,WUHU216DAVISVP2,2013-05-10 18:58:00,
2013-05-10 15:04:00,67.6,58.6,29.76,SW,218,9.0,23.0,73,0.00,,,0.08,WUHU216DAVISVP2,2013-05-10 19:04:00,
2013-05-10 15:09:00,67.4,58.4,29.76,South,176,12.0,24.0,73,0.00,,,0.08,WUHU216DAVISVP2,2013-05-10 19:09:00,
2013-05-10 15:14:00,67.4,59.2,29.77,SSW,199,9.0,24.0,75,0.00,,,0.08,WUHU216DAVISVP2,2013-05-10 19:14:00,
2013-05-10 15:19:00,67.5,59.3,29.76,SSW,202,11.0,24.0,75,0.00,,,0.08,WUHU216DAVISVP2,2013-05-10 19:19:00,
2013-05-10 15:24:00,67.6,59.0,29.76,SSW,192,21.0,24.0,74,0.00,,,0.08,WUHU216DAVISVP2,2013-05-10 19:24:00,
2013-05-10 15:29:00,67.8,59.2,29.75,SSW,193,6.0,21.0,74,0.00,,,0.08,WUHU216DAVISVP2,2013-05-10 19:29:00,
2013-05-10 15:34:00,68.0,59.4,29.75,South,175,15.0,23.0,74,0.00,,,0.08,WUHU216DAVISVP2,2013-05-10 19:34:00,
2013-05-10 15:39:00,67.9,59.3,29.75,SSW,209,6.0,23.0,74,0.00,,,0.08,WUHU216DAVISVP2,2013-05-10 19:39:00,
2013-05-10 15:44:00,68.4,59.9,29.75,SSW,200,11.0,23.0,74,0.00,,,0.08,WUHU216DAVISVP2,2013-05-10 19:44:00,
2013-05-10 15:49:00,68.8,61.0,29.75,SW,233,14.0,23.0,76,0.00,,,0.08,WUHU216DAVISVP2,2013-05-10 19:49:00,
2013-05-10 15:54:00,68.4,59.6,29.75,WSW,238,5.0,20.0,73,0.00,,,0.08,WUHU216DAVISVP2,2013-05-10 19:54:00,
2013-05-10 15:59:00,68.0,59.5,29.75,SW,230,11.0,22.0,74,0.00,,,0.08,WUHU216DAVISVP2,2013-05-10 19:59:00,
2013-05-10 16:04:00,68.6,59.7,29.74,South,179,11.0,22.0,73,0.00,,,0.08,WUHU216DAVISVP2,2013-05-10 20:04:00,
2013-05-10 16:09:00,69.1,60.2,29.74,SW,215,8.0,22.0,73,0.00,,,0.08,WUHU216DAVISVP2,2013-05-10 20:09:00,
2013-05-10 16:14:00,69.2,59.6,29.74,SSW,205,12.0,22.0,71,0.00,,,0.08,WUHU216DAVISVP2,2013-05-10 20:14:00,
2013-05-10 16:19:00,68.7,60.2,29.74,SSW,198,12.0,21.0,74,0.00,,,0.08,WUHU216DAVISVP2,2013-05-10 20:19:00,
2013-05-10 16:25:00,69.1,59.9,29.74,SW,225,11.0,21.0,72,0.00,,,0.08,WUHU216DAVISVP2,2013-05-10 20:25:00,
2013-05-10 16:30:00,68.9,59.5,29.73,SSW,213,8.0,21.0,72,0.00,,,0.08,WUHU216DAVISVP2,2013-05-10 20:30:00,
2013-05-10 16:35:00,68.8,59.4,29.73,SSW,196,14.0,21.0,72,0.00,,,0.08,WUHU216DAVISVP2,2013-05-10 20:35:00,
2013-05-10 16:40:00,69.0,59.2,29.73,South,184,10.0,21.0,71,0.00,,,0.08,WUHU216DAVISVP2,2013-05-10 20:40:00,
2013-05-10 16:45:00,69.4,59.4,29.73,South,171,12.0,21.0,70,0.00,,,0.08,WUHU216DAVISVP2,2013-05-10 20:45:00,
2013-05-10 16:50:00,68.9,59.7,29.73,South,188,5.0,20.0,72,0.00,,,0.08,WUHU216DAVISVP2,2013-05-10 20:50:00,
2013-05-10 16:55:00,69.8,58.9,29.73,South,187,9.0,24.0,68,0.00,,,0.08,WUHU216DAVISVP2,2013-05-10 20:55:00,
2013-05-10 17:00:00,69.3,58.5,29.73,South,184,11.0,24.0,68,0.00,,,0.08,WUHU216DAVISVP2,2013-05-10 21:00:00,
2013-05-10 17:05:00,68.8,58.4,29.73,SSW,206,9.0,24.0,69,0.00,,,0.08,WUHU216DAVISVP2,2013-05-10 21:05:00,
2013-05-10 17:10:00,68.6,59.0,29.73,SSW,192,10.0,24.0,71,0.00,,,0.08,WUHU216DAVISVP2,2013-05-10 21:10:00,
2013-05-10 17:15:00,68.5,58.5,29.73,South,188,14.0,20.0,70,0.00,,,0.08,WUHU216DAVISVP2,2013-05-10 21:15:00,
2013-05-10 17:20:00,68.4,58.4,29.73,SW,219,12.0,22.0,70,0.00,,,0.08,WUHU216DAVISVP2,2013-05-10 21:20:00,
2013-05-10 17:25:00,68.7,58.3,29.72,SW,230,12.0,22.0,69,0.00,,,0.08,WUHU216DAVISVP2,2013-05-10 21:25:00,
2013-05-10 17:30:00,69.0,58.2,29.73,SW,227,19.0,25.0,68,0.00,,,0.08,WUHU216DAVISVP2,2013-05-10 21:30:00,
2013-05-10 17:35:00,68.3,58.3,29.73,WSW,249,16.0,25.0,70,0.00,,,0.08,WUHU216DAVISVP2,2013-05-10 21:35:00,
2013-05-10 17:40:00,68.0,57.6,29.73,SW,218,12.0,25.0,69,0.00,,,0.08,WUHU216DAVISVP2,2013-05-10 21:40:00,
2013-05-10 17:46:00,67.4,57.4,29.73,WSW,240,19.0,25.0,70,0.00,,,0.08,WUHU216DAVISVP2,2013-05-10 21:46:00,
2013-05-10 17:51:00,67.0,57.1,29.73,WSW,244,14.0,22.0,70,0.00,,,0.08,WUHU216DAVISVP2,2013-05-10 21:51:00,
2013-05-10 17:56:00,66.9,57.0,29.73,SW,230,12.0,22.0,70,0.00,,,0.08,WUHU216DAVISVP2,2013-05-10 21:56:00,
2013-05-10 18:01:00,66.7,57.2,29.73,SW,234,14.0,22.0,71,0.00,,,0.08,WUHU216DAVISVP2,2013-05-10 22:01:00,
2013-05-10 18:06:00,66.6,56.7,29.73,SW,225,10.0,22.0,70,0.00,,,0.08,WUHU216DAVISVP2,2013-05-10 22:06:00,
2013-05-10 18:11:00,66.5,57.0,29.73,WSW,247,9.0,20.0,71,0.00,,,0.08,WUHU216DAVISVP2,2013-05-10 22:11:00,
2013-05-10 18:16:00,66.3,56.4,29.73,SW,229,14.0,22.0,70,0.00,,,0.08,WUHU216DAVISVP2,2013-05-10 22:16:00,
2013-05-10 18:21:00,65.7,56.2,29.73,SW,235,13.0,22.0,71,0.00,,,0.08,WUHU216DAVISVP2,2013-05-10 22:21:00,
2013-05-10 18:26:00,65.7,56.6,29.73,WSW,250,8.0,22.0,72,0.00,,,0.08,WUHU216DAVISVP2,2013-05-10 22:26:00,
2013-05-10 18:31:00,65.6,56.5,29.74,WSW,241,9.0,22.0,72,0.00,,,0.08,WUHU216DAVISVP2,2013-05-10 22:31:00,
2013-05-10 18:36:00,65.1,56.7,29.74,WNW,298,13.0,22.0,74,0.00,,,0.08,WUHU216DAVISVP2,2013-05-10 22:36:00,
2013-05-10 18:41:00,63.4,56.2,29.74,West,274,15.0,19.0,77,0.00,,,0.08,WUHU216DAVISVP2,2013-05-10 22:41:00,
2013-05-10 18:46:00,62.4,55.8,29.74,West,263,11.0,18.0,79,0.00,,,0.08,WUHU216DAVISVP2,2013-05-10 22:46:00,
2013-05-10 18:51:00,61.5,54.6,29.75,West,269,16.0,20.0,78,0.00,,,0.08,WUHU216DAVISVP2,2013-05-10 22:51:00,
2013-05-10 18:56:00,60.5,54.3,29.75,West,265,15.0,20.0,80,0.00,,,0.08,WUHU216DAVISVP2,2013-05-10 22:56:00,
2013-05-10 19:02:00,59.6,54.1,29.76,WNW,290,12.0,21.0,82,0.00,,,0.08,WUHU216DAVISVP2,2013-05-10 23:02:00,
2013-05-10 19:07:00,58.8,53.0,29.76,West,269,13.0,21.0,81,0.00,,,0.08,WUHU216DAVISVP2,2013-05-10 23:07:00,
2013-05-10 19:12:00,58.4,53.0,29.76,WNW,284,16.0,21.0,82,0.00,,,0.08,WUHU216DAVISVP2,2013-05-10 23:12:00,
2013-05-10 19:17:00,58.3,52.9,29.76,WNW,282,12.0,21.0,82,0.00,,,0.08,WUHU216DAVISVP2,2013-05-10 23:17:00,
2013-05-10 19:22:00,57.8,52.0,29.76,WNW,287,18.0,21.0,81,0.00,,,0.08,WUHU216DAVISVP2,2013-05-10 23:22:00,
2013-05-10 19:27:00,56.7,51.6,29.76,West,266,14.0,19.0,83,0.00,,,0.08,WUHU216DAVISVP2,2013-05-10 23:27:00,
2013-05-10 19:32:00,56.1,51.3,29.76,WSW,256,10.0,21.0,84,0.00,,,0.08,WUHU216DAVISVP2,2013-05-10 23:32:00,
2013-05-10 19:37:00,56.0,51.2,29.77,WSW,257,9.0,21.0,84,0.00,,,0.08,WUHU216DAVISVP2,2013-05-10 23:37:00,
2013-05-10 19:42:00,55.5,51.1,29.77,West,268,15.0,21.0,85,0.00,,,0.08,WUHU216DAVISVP2,2013-05-10 23:42:00,
2013-05-10 19:47:00,55.1,50.7,29.77,WNW,284,10.0,21.0,85,0.00,,,0.08,WUHU216DAVISVP2,2013-05-10 23:47:00,
2013-05-10 19:52:00,54.6,50.5,29.77,West,277,9.0,19.0,86,0.00,,,0.08,WUHU216DAVISVP2,2013-05-10 23:52:00,
2013-05-10 19:57:00,54.1,50.0,29.78,WNW,282,11.0,18.0,86,0.00,,,0.08,WUHU216DAVISVP2,2013-05-10 23:57:00,
2013-05-10 20:02:00,53.7,49.9,29.78,West,263,8.0,18.0,87,0.00,,,0.08,WUHU216DAVISVP2,2013-05-11 00:02:00,
2013-05-10 20:07:00,53.5,49.7,29.78,West,280,11.0,18.0,87,0.00,,,0.08,WUHU216DAVISVP2,2013-05-11 00:07:00,
2013-05-10 20:12:00,53.5,50.0,29.79,WNW,284,12.0,18.0,88,0.00,,,0.08,WUHU216DAVISVP2,2013-05-11 00:12:00,
2013-05-10 20:17:00,53.1,49.3,29.78,WNW,290,12.0,16.0,87,0.00,,,0.08,WUHU216DAVISVP2,2013-05-11 00:17:00,
2013-05-10 20:22:00,52.8,49.3,29.79,WNW,292,11.0,18.0,88,0.00,,,0.08,WUHU216DAVISVP2,2013-05-11 00:22:00,
2013-05-10 20:28:00,52.5,48.7,29.79,WNW,287,14.0,20.0,87,0.00,,,0.08,WUHU216DAVISVP2,2013-05-11 00:28:00,
2013-05-10 20:33:00,52.3,48.5,29.79,West,273,14.0,20.0,87,0.00,,,0.08,WUHU216DAVISVP2,2013-05-11 00:33:00,
2013-05-10 20:38:00,52.0,48.5,29.80,West,279,10.0,20.0,88,0.00,,,0.08,WUHU216DAVISVP2,2013-05-11 00:38:00,
2013-05-10 20:43:00,51.8,48.3,29.80,WNW,288,12.0,20.0,88,0.00,,,0.08,WUHU216DAVISVP2,2013-05-11 00:43:00,
2013-05-10 20:48:00,51.6,48.1,29.80,WNW,282,10.0,19.0,88,0.00,,,0.08,WUHU216DAVISVP2,2013-05-11 00:48:00,
2013-05-10 20:53:00,51.5,48.3,29.80,West,261,7.0,19.0,89,0.00,,,0.08,WUHU216DAVISVP2,2013-05-11 00:53:00,
2013-05-10 20:58:00,51.1,47.9,29.81,West,265,12.0,16.0,89,0.00,,,0.08,WUHU216DAVISVP2,2013-05-11 00:58:00,
2013-05-10 21:03:00,50.9,47.7,29.81,West,261,11.0,14.0,89,0.00,,,0.08,WUHU216DAVISVP2,2013-05-11 01:03:00,
2013-05-10 21:08:00,50.5,47.3,29.81,WNW,284,14.0,16.0,89,0.00,,,0.08,WUHU216DAVISVP2,2013-05-11 01:08:00,
2013-05-10 21:13:00,50.5,47.3,29.81,WNW,293,9.0,16.0,89,0.00,,,0.08,WUHU216DAVISVP2,2013-05-11 01:13:00,
2013-05-10 21:18:00,50.3,47.1,29.82,WNW,286,8.0,16.0,89,0.00,,,0.08,WUHU216DAVISVP2,2013-05-11 01:18:00,
2013-05-10 21:23:00,50.0,46.9,29.82,WNW,292,8.0,16.0,89,0.00,,,0.08,WUHU216DAVISVP2,2013-05-11 01:23:00,
2013-05-10 21:28:00,49.8,47.0,29.82,WNW,288,14.0,16.0,90,0.00,,,0.08,WUHU216DAVISVP2,2013-05-11 01:28:00,
2013-05-10 21:33:00,49.4,46.6,29.83,West,281,9.0,16.0,90,0.00,,,0.08,WUHU216DAVISVP2,2013-05-11 01:33:00,
2013-05-10 21:38:00,48.9,46.1,29.83,West,281,11.0,18.0,90,0.00,,,0.08,WUHU216DAVISVP2,2013-05-11 01:38:00,
2013-05-10 21:44:00,48.6,46.1,29.83,West,264,9.0,18.0,91,0.00,,,0.08,WUHU216DAVISVP2,2013-05-11 01:44:00,
2013-05-10 21:49:00,48.4,45.9,29.84,West,273,14.0,18.0,91,0.00,,,0.08,WUHU216DAVISVP2,2013-05-11 01:49:00,
2013-05-10 21:54:00,48.2,45.7,29.84,West,278,9.0,18.0,91,0.00,,,0.08,WUHU216DAVISVP2,2013-05-11 01:54:00,
2013-05-10 21:59:00,48.1,45.6,29.84,WNW,299,11.0,15.0,91,0.00,,,0.08,WUHU216DAVISVP2,2013-05-11 01:59:00,
2013-05-10 22:04:00,47.9,45.1,29.85,NW,320,6.0,15.0,90,0.00,,,0.08,WUHU216DAVISVP2,2013-05-11 02:04:00,
2013-05-10 22:09:00,47.9,45.1,29.85,West,276,9.0,15.0,90,0.00,,,0.08,WUHU216DAVISVP2,2013-05-11 02:09:00,
2013-05-10 22:14:00,47.8,45.0,29.85,WNW,300,7.0,14.0,90,0.00,,,0.08,WUHU216DAVISVP2,2013-05-11 02:14:00,
2013-05-10 22:19:00,47.6,44.8,29.86,West,273,8.0,14.0,90,0.00,,,0.08,WUHU216DAVISVP2,2013-05-11 02:19:00,
2013-05-10 22:24:00,47.4,44.6,29.86,WNW,296,10.0,14.0,90,0.00,,,0.08,WUHU216DAVISVP2,2013-05-11 02:24:00,
2013-05-10 22:29:00,47.3,44.5,29.86,WNW,288,11.0,14.0,90,0.00,,,0.08,WUHU216DAVISVP2,2013-05-11 02:29:00,
2013-05-10 22:34:00,47.0,44.2,29.86,WNW,294,11.0,15.0,90,0.00,,,0.08,WUHU216DAVISVP2,2013-05-11 02:34:00,
2013-05-10 22:39:00,46.9,44.1,29.86,WNW,298,13.0,15.0,90,0.00,,,0.08,WUHU216DAVISVP2,2013-05-11 02:39:00,
2013-05-10 22:44:00,46.9,44.1,29.86,WNW,292,7.0,15.0,90,0.00,,,0.08,WUHU216DAVISVP2,2013-05-11 02:44:00,
2013-05-10 22:49:00,46.9,43.8,29.86,WNW,302,11.0,15.0,89,0.00,,,0.08,WUHU216DAVISVP2,2013-05-11 02:49:00,
2013-05-10 22:54:00,46.8,43.7,29.86,NW,304,11.0,15.0,89,0.00,,,0.08,WUHU216DAVISVP2,2013-05-11 02:54:00,
2013-05-10 22:59:00,46.9,44.1,29.86,West,276,11.0,15.0,90,0.00,,,0.08,WUHU216DAVISVP2,2013-05-11 02:59:00,
2013-05-10 23:05:00,46.7,43.6,29.86,West,277,14.0,16.0,89,0.00,,,0.08,WUHU216DAVISVP2,2013-05-11 03:05:00,
2013-05-10 23:10:00,46.5,43.4,29.86,WNW,298,9.0,18.0,89,0.00,,,0.08,WUHU216DAVISVP2,2013-05-11 03:10:00,
2013-05-10 23:15:00,46.3,43.2,29.86,WNW,286,11.0,18.0,89,0.00,,,0.08,WUHU216DAVISVP2,2013-05-11 03:15:00,
2013-05-10 23:20:00,46.4,43.3,29.86,WNW,291,9.0,18.0,89,0.00,,,0.08,WUHU216DAVISVP2,2013-05-11 03:20:00,
2013-05-10 23:25:00,46.4,43.3,29.86,WNW,300,12.0,16.0,89,0.00,,,0.08,WUHU216DAVISVP2,2013-05-11 03:25:00,
2013-05-10 23:30:00,46.0,43.2,29.86,WNW,301,11.0,16.0,90,0.00,,,0.08,WUHU216DAVISVP2,2013-05-11 03:30:00,
2013-05-10 23:35:00,45.9,43.1,29.86,NW,305,7.0,16.0,90,0.00,,,0.08,WUHU216DAVISVP2,2013-05-11 03:35:00,
2013-05-10 23:40:00,46.0,43.2,29.86,West,277,9.0,16.0,90,0.00,,,0.08,WUHU216DAVISVP2,2013-05-11 03:40:00,
2013-05-10 23:45:00,46.1,43.3,29.86,West,275,8.0,15.0,90,0.00,,,0.08,WUHU216DAVISVP2,2013-05-11 03:45:00,
2013-05-10 23:50:00,45.9,43.1,29.86,WNW,302,8.0,14.0,90,0.00,,,0.08,WUHU216DAVISVP2,2013-05-11 03:50:00,
2013-05-10 23:55:00,45.8,43.0,29.87,WNW,294,9.0,14.0,90,0.00,,,0.08,WUHU216DAVISVP2,2013-05-11 03:55:00,